Tracking 19219 objects as of 19-Jul-2018
HD Live streaming from Space Station
objects crossing your sky now

NIMBUS 2 DEB

Track NIMBUS 2 DEB now!
10-day predictions


NORAD ID: 37888
Int'l Code: 1966-040AT
Perigee: 1,078.6 km
Apogee: 1,151.3 km
Inclination: 100.6 °
Period: 107.4 minutes
Semi major axis: 7485 km
RCS: 0.036 m2 (small)
Launch date: May 15, 1966
Source: United States (US)
Launch site: AIR FORCE WESTERN TEST RANGE (AFWTR)

Note: This is SATELLITE DEBRIS
aabbcc
Your satellite tracking list
Your tracking list is empty




NASA's NSSDC Master Catalog

Two Line Element Set (TLE):
1 37888U 66040AT  18199.55455955 +.00000490 +00000-0 +97851-3 0  9997
2 37888 100.6403 037.0122 0048542 254.8455 171.8787 13.40388709447840
Source of the keplerian elements: AFSPC